Flag for U.S.A. Weather past 2 weeks in Mesquite, Texas, U.S.A.

Now
84 °F

Scattered clouds.


Feels Like: 86 °F
Forecast: 71 / 88 °F
Wind: 5 mph from East

Location: Mesquite Metro Airport

Current Time: Sep 16, 2014 at 9:34:31 PM

Latest Report: Sep 16, 2014 at 7:50 PM


Visibility: 10 mi

Pressure: 29.98 "Hg

Humidity: 51%

Dew point: 64 °F

Location of MesquiteLocation

Historic Weather in Mesquite — Graph

°F

Mesquite temperature yesterday

Maximum temperature yesterday: 84 °F (at 2:50 PM)
Minimum temperature yesterday: 68 °F (at 3:55 AM)
Average temperature yesterday: 74 °F

Past Weeks' High & Low Weather Summary

 TemperatureHumidityPressure
High99 °F (Sep 10, 2:55 PM)100% (Sep 8, 6:50 AM)30.29 "Hg (Sep 8, 6:50 AM)
Low57 °F (Sep 13, 6:47 AM)28% (Sep 5, 5:47 PM)29.75 "Hg (Sep 10, 5:55 PM)
Average78 °F72%30.02 "Hg
* Reported Sep 1 7:50 PM — Sep 16 7:50 PM, Mesquite, Weather by CustomWeather, © 2014

Note: Actual official high and low records may vary slightly from our data, if they occured in-between our weather recording intervals... More about our weather records

Advertising

Mesquite weather history for previous 24 hours

 ConditionsComfort  
Time TempWeatherWind HumidityBarometerVisibility
7:50 PM
Sep 16
84 °FScattered clouds.5 mph51%29.98 "Hg10 mi
6:55 PM90 °FSunny.No wind41%29.98 "Hg10 mi
5:57 PM90 °FSunny.3 mph43%29.97 "Hg10 mi
4:57 PM90 °FSunny.3 mph43%29.99 "Hg7 mi
3:57 PM91 °FScattered clouds.3 mph41%30.01 "Hg7 mi
2:47 PM88 °FScattered clouds.No wind46%30.04 "Hg7 mi
1:55 PM88 °FBroken clouds.No wind49%30.06 "Hg7 mi
12:50 PM86 °FScattered clouds.No wind55%30.08 "Hg7 mi
11:50 AM84 °FScattered clouds.3 mph62%30.11 "Hg7 mi
10:50 AM81 °FSunny.3 mph70%30.13 "Hg7 mi
9:50 AM79 °FSunny.No wind79%30.13 "Hg7 mi
8:50 AM75 °FSunny.No wind89%30.12 "Hg7 mi
7:55 AM73 °FClear.No wind89%30.12 "Hg7 mi
6:50 AM72 °FClear.No wind94%30.11 "Hg7 mi
5:35 AM72 °FClear.No wind93%30.10 "Hg7 mi
5:15 AM72 °FClear.No wind93%30.10 "Hg7 mi
4:55 AM72 °FPassing clouds.No wind93%30.10 "Hg7 mi
4:35 AM73 °FPassing clouds.No wind91%30.10 "Hg7 mi
4:15 AM72 °FPassing clouds.No wind92%30.10 "Hg7 mi
3:55 AM73 °FPassing clouds.3 mph91%30.10 "Hg7 mi
3:35 AM73 °FPassing clouds.No wind91%30.10 "Hg7 mi
3:15 AM72 °FClear.No wind91%30.11 "Hg7 mi
2:55 AM73 °FClear.No wind91%30.11 "Hg7 mi
2:15 AM73 °FClear.No wind87%30.12 "Hg10 mi
1:55 AM74 °FClear.No wind83%30.12 "Hg10 mi
1:35 AM75 °FClear.No wind82%30.12 "Hg10 mi
1:15 AM75 °FClear.No wind83%30.12 "Hg10 mi
12:55 AM74 °FClear.No wind85%30.12 "Hg10 mi
12:35 AM75 °FClear.No wind82%30.12 "Hg10 mi
12:15 AM75 °FClear.No wind82%30.12 "Hg10 mi
11:55 PM
Sep 15
76 °FClear.No wind80%30.12 "Hg10 mi
11:35 PM75 °FClear.No wind81%30.12 "Hg10 mi
11:15 PM76 °FClear.No wind78%30.12 "Hg10 mi
10:55 PM77 °FClear.No wind78%30.12 "Hg10 mi
10:15 PM77 °FClear.No wind76%30.12 "Hg10 mi
9:55 PM78 °FClear.No wind76%30.11 "Hg10 mi
Weather by CustomWeather, © 2014

See weather overviewHow to use our weather pages